CZ-6A DEB, 60764

Orbit data source: Space-Track

CZ-6A DEB, 60764 is space debris in LEO originally from a launch on Tue, 06 Aug 2024 UTC launched from the Taiyaun Space Center, China (TSC). Debris objects in space refer to the collection of defunct objects orbiting the Earth. Examples of debris include non-operational satellites, rocket bodies, and fragments generated from explosions, collisions, or faulty payload assembly.

Loading next visibility...
Identifier
60764, 2024-140EP
Orbit
LEO
Country
Flag of CNCN / PRC
Related business
Manufacturer
SAST
Mission
Spacecraft
Bus & Motor
Unknown
Mass
Unknown
Launch date (UTC)
2024-08-06 (2 years ago)
Launch vehicle
Unknown
Launch site
Taiyaun Space Center, China (TSC)
Object type
Payload
Rocket body
Debris
Shape & HBR
Unknown shape, 0.2 m
Radar Cross Section
Medium (>0.1 m² and <1 m²)

Expand to show TLE details & history
Last TLE update: 14 hours ago

TLE from 14 hours ago
0 CZ-6A DEB
1 60764U 24140EP  26171.27837425  .00000300  00000-0  11719-3 0  9994
2 60764  88.9483 269.1539 0021271  95.3390 265.0231 14.26832902 96519
Epoch: 2026-06-20T06:40Z
TLE epoch observation values (Epoch: 2026-06-20T06:40:51.535Z)
Latitude
-0.00005°
Longitude
-99.55612°
Altitude
806.757 km
Speed
7.449 km/s
True Right ascension
17h 56m 36s
True Declination
0° 00' 00"
Sunlit
Object was in full shadow at epoch
Visualization orbit readout
Latitude
Unknown
Longitude
Unknown
Altitude
Unknown
Speed
Unknown
Apparent Right ascension
Unknown
Apparent Declination
Unknown
Sunlit
N/A
Visualization observer readout
Local Sidereal Time
07:19:21
Azimuth
Unknown
Elevation
Unknown
Doppler factor
Unknown
Orbital elements
Apogee altitude
814.546 km
Perigee altitude
784.011 km
Semi-major axis
7,177.415 km
Eccentricity
0.00213
Inclination
88.9483°
RAAN
269.1539°
Arg. of periapsis
95.339°
True anomaly
264.78033°
Mean anomaly
265.0231°
Eccentric anomaly
264.90171°
Mean motion
3.56937 °/min
Orbital period
100.86 mins
BSTAR
0.00011719
Loading maneuver chart data...
Computing Atmospheric mass density...
Loading historical data...
Loading historical data...
Loading historical data...
Loading historical data...
Loading historical data...
Loading historical data...
Loading historical data...

Documentation

Showing up to 5 results
|